Time,TemperatureF,DewpointF,PressureIn,WindDirection,WindDirectionDegrees,WindSpeedMPH,WindSpeedGustMPH,Humidity,HourlyPrecipIn,Conditions,Clouds,dailyrainin,SolarRadiationWatts/m^2,SoftwareType,DateUTC
2013-07-27 00:00:00,66.8,55.9,29.88,North,356,3.0,9.0,68,0.00,,---,0.22,0.00,VWS V14.01,2013-07-27 05:00:00,
2013-07-27 00:01:00,66.6,55.7,29.88,North,0,7.0,9.0,68,0.00,,---,0.00,0.00,VWS V14.01,2013-07-27 05:01:00,
2013-07-27 00:05:00,66.4,55.5,29.88,North,354,7.0,11.0,68,0.00,,---,0.00,0.00,VWS V14.01,2013-07-27 05:05:00,
2013-07-27 00:06:00,66.4,55.5,29.88,North,0,5.0,10.0,68,0.00,,---,0.00,0.00,VWS V14.01,2013-07-27 05:06:00,
2013-07-27 00:10:00,66.3,55.8,29.88,NNW,347,7.0,10.0,69,0.00,,---,0.00,0.00,VWS V14.01,2013-07-27 05:10:00,
2013-07-27 00:11:00,66.3,55.8,29.88,North,0,7.0,8.0,69,0.00,,---,0.00,0.00,VWS V14.01,2013-07-27 05:11:00,
2013-07-27 00:15:00,66.0,55.5,29.88,North,0,5.0,9.0,69,0.00,,---,0.00,0.00,VWS V14.01,2013-07-27 05:15:00,
2013-07-27 00:16:00,66.0,55.5,29.88,North,352,7.0,8.0,69,0.00,,---,0.00,0.00,VWS V14.01,2013-07-27 05:16:00,
2013-07-27 00:20:00,65.8,55.4,29.88,North,0,6.0,8.0,69,0.00,,---,0.00,0.00,VWS V14.01,2013-07-27 05:20:00,
2013-07-27 00:22:00,65.8,55.4,29.88,North,0,6.0,10.0,69,0.00,,---,0.00,0.00,VWS V14.01,2013-07-27 05:22:00,
2013-07-27 00:25:00,65.8,55.4,29.88,North,356,6.0,10.0,69,0.00,,---,0.00,0.00,VWS V14.01,2013-07-27 05:25:00,
2013-07-27 00:27:00,65.8,55.4,29.88,North,0,7.0,8.0,69,0.00,,---,0.00,0.00,VWS V14.01,2013-07-27 05:27:00,
2013-07-27 00:30:00,65.8,55.4,29.87,North,0,6.0,10.0,69,0.00,,---,0.00,0.00,VWS V14.01,2013-07-27 05:30:00,
2013-07-27 00:32:00,65.8,55.4,29.87,SE,133,7.0,10.0,69,0.00,,---,0.00,0.00,VWS V14.01,2013-07-27 05:32:00,
2013-07-27 00:35:00,65.8,55.0,29.87,North,349,8.0,10.0,68,0.00,,---,0.00,0.00,VWS V14.01,2013-07-27 05:35:00,
2013-07-27 00:37:00,65.8,55.0,29.87,North,350,6.0,11.0,68,0.00,,---,0.00,0.00,VWS V14.01,2013-07-27 05:37:00,
2013-07-27 00:40:00,65.8,55.0,29.87,NNW,343,10.0,11.0,68,0.00,,---,0.00,0.00,VWS V14.01,2013-07-27 05:40:00,
2013-07-27 00:42:00,65.8,55.0,29.87,North,353,11.0,12.0,68,0.00,,---,0.00,0.00,VWS V14.01,2013-07-27 05:42:00,
2013-07-27 00:45:00,65.8,55.0,29.88,North,349,12.0,12.0,68,0.00,,---,0.00,0.00,VWS V14.01,2013-07-27 05:45:00,
2013-07-27 00:47:00,65.8,55.0,29.88,North,0,12.0,12.0,68,0.00,,---,0.00,0.00,VWS V14.01,2013-07-27 05:47:00,
2013-07-27 00:50:00,65.6,54.8,29.88,North,353,12.0,13.0,68,0.00,,---,0.00,0.00,VWS V14.01,2013-07-27 05:50:00,
2013-07-27 00:52:00,65.6,54.8,29.88,North,0,11.0,13.0,68,0.00,,---,0.00,0.00,VWS V14.01,2013-07-27 05:52:00,
2013-07-27 00:55:00,65.5,54.7,29.88,NNW,344,7.0,13.0,68,0.00,,---,0.00,0.00,VWS V14.01,2013-07-27 05:55:00,
2013-07-27 00:57:00,65.3,54.9,29.88,North,0,8.0,13.0,69,0.00,,---,0.00,0.00,VWS V14.01,2013-07-27 05:57:00,
2013-07-27 01:00:00,65.2,54.8,29.88,North,357,11.0,13.0,69,0.00,,---,0.00,0.00,VWS V14.01,2013-07-27 06:00:00,
2013-07-27 01:03:00,65.2,54.8,29.88,North,0,9.0,12.0,69,0.00,,---,0.00,0.00,VWS V14.01,2013-07-27 06:03:00,
2013-07-27 01:05:00,65.0,54.6,29.88,West,263,9.0,13.0,69,0.00,,---,0.00,0.00,VWS V14.01,2013-07-27 06:05:00,
2013-07-27 01:08:00,64.8,54.4,29.88,West,271,12.0,12.0,69,0.00,,---,0.00,0.00,VWS V14.01,2013-07-27 06:08:00,
2013-07-27 01:10:00,64.7,54.7,29.88,North,359,10.0,12.0,70,0.00,,---,0.00,0.00,VWS V14.01,2013-07-27 06:10:00,
2013-07-27 01:13:00,64.5,54.5,29.88,North,0,10.0,12.0,70,0.00,,---,0.00,0.00,VWS V14.01,2013-07-27 06:13:00,
2013-07-27 01:15:00,64.5,54.9,29.88,North,356,8.0,12.0,71,0.00,,---,0.00,0.00,VWS V14.01,2013-07-27 06:15:00,
2013-07-27 01:18:00,64.3,54.7,29.88,NW,319,8.0,11.0,71,0.00,,---,0.00,0.00,VWS V14.01,2013-07-27 06:18:00,
2013-07-27 01:20:00,64.2,54.6,29.88,North,359,8.0,11.0,71,0.00,,---,0.00,0.00,VWS V14.01,2013-07-27 06:20:00,
2013-07-27 01:23:00,64.0,54.8,29.88,North,0,8.0,10.0,72,0.00,,---,0.00,0.00,VWS V14.01,2013-07-27 06:23:00,
2013-07-27 01:25:00,63.9,54.7,29.88,NNW,344,7.0,10.0,72,0.00,,---,0.00,0.00,VWS V14.01,2013-07-27 06:25:00,
2013-07-27 01:28:00,63.7,54.5,29.88,North,354,11.0,11.0,72,0.00,,---,0.00,0.00,VWS V14.01,2013-07-27 06:28:00,
2013-07-27 01:30:00,63.7,54.5,29.88,NNW,343,7.0,11.0,72,0.00,,---,0.00,0.00,VWS V14.01,2013-07-27 06:30:00,
2013-07-27 01:33:00,63.5,54.7,29.88,North,357,6.0,10.0,73,0.00,,---,0.00,0.00,VWS V14.01,2013-07-27 06:33:00,
2013-07-27 01:35:00,63.4,54.6,29.88,NNW,346,6.0,10.0,73,0.00,,---,0.00,0.00,VWS V14.01,2013-07-27 06:35:00,
2013-07-27 01:38:00,63.2,54.8,29.88,North,0,7.0,10.0,74,0.00,,---,0.00,0.00,VWS V14.01,2013-07-27 06:38:00,
2013-07-27 01:40:00,63.1,54.7,29.88,NNW,337,8.0,10.0,74,0.00,,---,0.00,0.00,VWS V14.01,2013-07-27 06:40:00,
2013-07-27 01:43:00,62.9,54.9,29.88,North,356,8.0,8.0,75,0.00,,---,0.00,0.00,VWS V14.01,2013-07-27 06:43:00,
2013-07-27 01:45:00,62.7,54.7,29.88,North,0,6.0,8.0,75,0.00,,---,0.00,0.00,VWS V14.01,2013-07-27 06:45:00,
2013-07-27 01:48:00,62.6,54.6,29.88,WNW,295,7.0,9.0,75,0.00,,---,0.00,0.00,VWS V14.01,2013-07-27 06:48:00,
2013-07-27 01:50:00,62.4,54.4,29.88,North,353,7.0,9.0,75,0.00,,---,0.00,0.00,VWS V14.01,2013-07-27 06:50:00,
2013-07-27 01:53:00,62.3,54.7,29.88,SSE,164,5.0,10.0,76,0.00,,---,0.00,0.00,VWS V14.01,2013-07-27 06:53:00,
2013-07-27 01:55:00,62.1,54.8,29.88,North,0,8.0,10.0,77,0.00,,---,0.00,0.00,VWS V14.01,2013-07-27 06:55:00,
2013-07-27 01:59:00,62.1,54.8,29.88,North,0,5.0,9.0,77,0.00,,---,0.00,0.00,VWS V14.01,2013-07-27 06:59:00,
2013-07-27 02:00:00,62.1,54.8,29.88,North,0,7.0,9.0,77,0.00,,---,0.00,0.00,VWS V14.01,2013-07-27 07:00:00,
2013-07-27 02:04:00,62.0,54.7,29.88,North,0,6.0,10.0,77,0.00,,---,0.00,0.00,VWS V14.01,2013-07-27 07:04:00,
2013-07-27 02:05:00,62.0,54.7,29.88,North,354,8.0,10.0,77,0.00,,---,0.00,0.00,VWS V14.01,2013-07-27 07:05:00,
2013-07-27 02:09:00,62.0,54.7,29.88,North,352,5.0,10.0,77,0.00,,---,0.00,0.00,VWS V14.01,2013-07-27 07:09:00,
2013-07-27 02:10:00,62.0,54.7,29.88,North,0,10.0,10.0,77,0.00,,---,0.00,0.00,VWS V14.01,2013-07-27 07:10:00,
2013-07-27 02:14:00,62.0,54.7,29.88,North,352,7.0,11.0,77,0.00,,---,0.00,0.00,VWS V14.01,2013-07-27 07:14:00,
2013-07-27 02:15:00,62.0,54.7,29.88,SW,229,8.0,11.0,77,0.00,,---,0.00,0.00,VWS V14.01,2013-07-27 07:15:00,
2013-07-27 02:19:00,62.0,54.7,29.88,WSW,250,6.0,12.0,77,0.00,,---,0.00,0.00,VWS V14.01,2013-07-27 07:19:00,
2013-07-27 02:20:00,62.0,54.7,29.88,East,85,8.0,12.0,77,0.00,,---,0.00,0.00,VWS V14.01,2013-07-27 07:20:00,
2013-07-27 02:24:00,62.0,54.7,29.88,North,352,6.0,10.0,77,0.00,,---,0.00,0.00,VWS V14.01,2013-07-27 07:24:00,
2013-07-27 02:25:00,61.8,54.5,29.88,West,274,7.0,10.0,77,0.00,,---,0.00,0.00,VWS V14.01,2013-07-27 07:25:00,
2013-07-27 02:29:00,61.8,54.9,29.88,NW,319,7.0,11.0,78,0.00,,---,0.00,0.00,VWS V14.01,2013-07-27 07:29:00,
2013-07-27 02:30:00,61.8,54.9,29.88,NW,319,7.0,11.0,78,0.00,,---,0.00,0.00,VWS V14.01,2013-07-27 07:30:00,
2013-07-27 02:35:00,61.6,54.7,29.88,SE,143,7.0,10.0,78,0.00,,---,0.00,0.00,VWS V14.01,2013-07-27 07:35:00,
2013-07-27 02:40:00,61.5,54.9,29.88,North,0,7.0,10.0,79,0.00,,---,0.00,0.00,VWS V14.01,2013-07-27 07:40:00,
2013-07-27 02:45:00,61.3,54.7,29.88,ENE,66,5.0,10.0,79,0.00,,---,0.00,0.00,VWS V14.01,2013-07-27 07:45:00,
2013-07-27 02:50:00,61.2,54.6,29.88,SE,124,8.0,11.0,79,0.00,,---,0.00,0.00,VWS V14.01,2013-07-27 07:50:00,
2013-07-27 02:55:00,61.0,54.8,29.88,South,174,10.0,10.0,80,0.00,,---,0.00,0.00,VWS V14.01,2013-07-27 07:55:00,
2013-07-27 03:00:00,60.9,54.7,29.87,ESE,109,7.0,10.0,80,0.00,,---,0.00,0.00,VWS V14.01,2013-07-27 08:00:00,
2013-07-27 03:05:00,60.7,54.5,29.87,North,0,6.0,9.0,80,0.00,,---,0.00,0.00,VWS V14.01,2013-07-27 08:05:00,
2013-07-27 03:10:00,60.5,54.7,29.87,NNW,343,6.0,9.0,81,0.00,,---,0.00,0.00,VWS V14.01,2013-07-27 08:10:00,
2013-07-27 03:15:00,60.4,54.5,29.87,North,359,6.0,7.0,81,0.00,,---,0.00,0.00,VWS V14.01,2013-07-27 08:15:00,
2013-07-27 03:20:00,60.4,54.9,29.87,NNW,344,6.0,8.0,82,0.00,,---,0.00,0.00,VWS V14.01,2013-07-27 08:20:00,
2013-07-27 03:25:00,60.1,54.6,29.87,NNW,336,6.0,7.0,82,0.00,,---,0.00,0.00,VWS V14.01,2013-07-27 08:25:00,
2013-07-27 03:30:00,60.1,54.6,29.86,North,0,7.0,7.0,82,0.00,,---,0.00,0.00,VWS V14.01,2013-07-27 08:30:00,
2013-07-27 03:35:00,59.9,54.4,29.86,South,175,7.0,7.0,82,0.00,,---,0.00,0.00,VWS V14.01,2013-07-27 08:35:00,
2013-07-27 03:40:00,59.9,54.7,29.86,North,352,2.0,6.0,83,0.00,,---,0.00,0.00,VWS V14.01,2013-07-27 08:40:00,
2013-07-27 03:45:00,60.1,54.6,29.85,WSW,256,3.0,7.0,82,0.00,,---,0.00,0.00,VWS V14.01,2013-07-27 08:45:00,
2013-07-27 03:46:00,60.1,54.6,29.85,North,349,6.0,6.0,82,0.00,,---,0.00,0.00,VWS V14.01,2013-07-27 08:46:00,
2013-07-27 03:50:00,60.1,54.6,29.85,SSE,165,6.0,7.0,82,0.00,,---,0.00,0.00,VWS V14.01,2013-07-27 08:50:00,
2013-07-27 03:51:00,60.1,54.6,29.85,NNW,344,8.0,8.0,82,0.00,,---,0.00,0.00,VWS V14.01,2013-07-27 08:51:00,
2013-07-27 03:55:00,59.9,54.7,29.85,NNW,347,6.0,8.0,83,0.00,,---,0.00,0.00,VWS V14.01,2013-07-27 08:55:00,
2013-07-27 03:56:00,59.9,54.7,29.85,North,0,6.0,6.0,83,0.00,,---,0.00,0.00,VWS V14.01,2013-07-27 08:56:00,
2013-07-27 04:00:00,59.8,54.6,29.84,North,357,7.0,7.0,83,0.00,,---,0.00,0.00,VWS V14.01,2013-07-27 09:00:00,
2013-07-27 04:01:00,59.6,54.4,29.84,NNW,340,7.0,7.0,83,0.00,,---,0.00,0.00,VWS V14.01,2013-07-27 09:01:00,
2013-07-27 04:05:00,59.6,54.8,29.84,East,88,5.0,8.0,84,0.00,,---,0.00,0.00,VWS V14.01,2013-07-27 09:05:00,
2013-07-27 04:06:00,59.6,54.8,29.84,South,176,3.0,6.0,84,0.00,,---,0.00,0.00,VWS V14.01,2013-07-27 09:06:00,
2013-07-27 04:10:00,59.6,54.4,29.84,NNW,337,3.0,7.0,83,0.00,,---,0.00,0.00,VWS V14.01,2013-07-27 09:10:00,
2013-07-27 04:11:00,59.6,54.4,29.84,ESE,107,5.0,6.0,83,0.00,,---,0.00,0.00,VWS V14.01,2013-07-27 09:11:00,
2013-07-27 04:15:00,59.6,54.4,29.84,SW,220,5.0,6.0,83,0.00,,---,0.00,0.00,VWS V14.01,2013-07-27 09:15:00,
2013-07-27 04:16:00,59.6,54.4,29.84,SW,230,6.0,6.0,83,0.00,,---,0.00,0.00,VWS V14.01,2013-07-27 09:16:00,
2013-07-27 04:20:00,59.6,54.4,29.84,South,189,5.0,6.0,83,0.00,,---,0.00,0.00,VWS V14.01,2013-07-27 09:20:00,
2013-07-27 04:22:00,59.6,54.4,29.84,South,176,5.0,6.0,83,0.00,,---,0.00,0.00,VWS V14.01,2013-07-27 09:22:00,
2013-07-27 04:25:00,59.6,54.4,29.84,SSW,209,3.0,6.0,83,0.00,,---,0.00,0.00,VWS V14.01,2013-07-27 09:25:00,
2013-07-27 04:27:00,59.6,54.4,29.84,North,0,5.0,6.0,83,0.00,,---,0.00,0.00,VWS V14.01,2013-07-27 09:27:00,
2013-07-27 04:30:00,59.6,54.4,29.84,West,272,5.0,6.0,83,0.00,,---,0.00,0.00,VWS V14.01,2013-07-27 09:30:00,
2013-07-27 04:32:00,59.6,54.4,29.84,East,86,3.0,6.0,83,0.00,,---,0.00,0.00,VWS V14.01,2013-07-27 09:32:00,
2013-07-27 04:35:00,59.6,54.4,29.84,SE,136,5.0,6.0,83,0.00,,---,0.00,0.00,VWS V14.01,2013-07-27 09:35:00,
2013-07-27 04:37:00,59.5,54.3,29.84,NW,315,5.0,6.0,83,0.00,,---,0.00,0.00,VWS V14.01,2013-07-27 09:37:00,
2013-07-27 04:40:00,59.5,54.3,29.84,North,359,3.0,6.0,83,0.00,,---,0.00,0.00,VWS V14.01,2013-07-27 09:40:00,
2013-07-27 04:42:00,59.5,54.7,29.84,ESE,112,2.0,6.0,84,0.00,,---,0.00,0.00,VWS V14.01,2013-07-27 09:42:00,
2013-07-27 04:45:00,59.3,54.5,29.83,East,96,2.0,6.0,84,0.00,,---,0.00,0.00,VWS V14.01,2013-07-27 09:45:00,
2013-07-27 04:47:00,59.3,54.5,29.83,North,349,2.0,5.0,84,0.00,,---,0.00,0.00,VWS V14.01,2013-07-27 09:47:00,
2013-07-27 04:50:00,59.3,54.5,29.83,SW,236,3.0,5.0,84,0.00,,---,0.00,0.00,VWS V14.01,2013-07-27 09:50:00,
2013-07-27 04:52:00,59.3,54.5,29.83,ESE,109,3.0,5.0,84,0.00,,---,0.00,0.00,VWS V14.01,2013-07-27 09:52:00,
2013-07-27 04:55:00,59.3,54.5,29.83,SW,230,2.0,5.0,84,0.00,,---,0.00,0.00,VWS V14.01,2013-07-27 09:55:00,
2013-07-27 04:57:00,59.3,54.5,29.83,SSW,203,2.0,3.0,84,0.00,,---,0.00,0.00,VWS V14.01,2013-07-27 09:57:00,
2013-07-27 05:00:00,59.3,54.5,29.85,West,270,3.0,4.0,84,0.00,,---,0.00,0.00,VWS V14.01,2013-07-27 10:00:00,
2013-07-27 05:03:00,59.3,54.5,29.85,SSE,157,4.0,5.0,84,0.00,,---,0.00,0.00,VWS V14.01,2013-07-27 10:03:00,
2013-07-27 05:05:00,59.3,54.5,29.85,North,0,5.0,6.0,84,0.00,,---,0.00,0.00,VWS V14.01,2013-07-27 10:05:00,
2013-07-27 05:08:00,59.3,54.5,29.85,NW,305,5.0,6.0,84,0.00,,---,0.00,0.00,VWS V14.01,2013-07-27 10:08:00,
2013-07-27 05:10:00,59.3,54.5,29.85,SSE,161,5.0,6.0,84,0.00,,---,0.00,0.00,VWS V14.01,2013-07-27 10:10:00,
2013-07-27 05:13:00,59.3,54.5,29.85,North,350,3.0,5.0,84,0.00,,---,0.00,0.00,VWS V14.01,2013-07-27 10:13:00,
2013-07-27 05:15:00,59.3,54.5,29.86,NNW,344,5.0,5.0,84,0.00,,---,0.00,0.00,VWS V14.01,2013-07-27 10:15:00,
2013-07-27 05:18:00,59.2,54.4,29.86,North,356,5.0,5.0,84,0.00,,---,0.00,0.00,VWS V14.01,2013-07-27 10:18:00,
2013-07-27 05:20:00,59.2,54.4,29.86,South,184,3.0,5.0,84,0.00,,---,0.00,0.00,VWS V14.01,2013-07-27 10:20:00,
2013-07-27 05:23:00,59.2,54.4,29.86,NNW,329,3.0,3.0,84,0.00,,---,0.00,0.00,VWS V14.01,2013-07-27 10:23:00,
2013-07-27 05:25:00,59.3,54.8,29.86,SSW,205,2.0,5.0,85,0.00,,---,0.00,0.00,VWS V14.01,2013-07-27 10:25:00,
2013-07-27 05:28:00,59.2,54.7,29.86,West,263,2.0,4.0,85,0.00,,---,0.00,0.00,VWS V14.01,2013-07-27 10:28:00,
2013-07-27 05:30:00,59.3,54.8,29.87,WNW,291,3.0,4.0,85,0.00,,---,0.00,0.00,VWS V14.01,2013-07-27 10:30:00,
2013-07-27 05:33:00,59.3,54.8,29.87,ENE,75,5.0,5.0,85,0.00,,---,0.00,0.00,VWS V14.01,2013-07-27 10:33:00,
2013-07-27 05:35:00,59.3,54.8,29.87,ENE,68,5.0,6.0,85,0.00,,---,0.00,0.00,VWS V14.01,2013-07-27 10:35:00,
2013-07-27 05:39:00,59.3,54.8,29.87,SSW,193,4.0,6.0,85,0.00,,---,0.00,0.00,VWS V14.01,2013-07-27 10:39:00,
2013-07-27 05:40:00,59.2,55.0,29.87,NW,313,6.0,6.0,86,0.00,,---,0.00,0.00,VWS V14.01,2013-07-27 10:40:00,
2013-07-27 05:44:00,59.2,55.0,29.87,North,354,7.0,8.0,86,0.00,,---,0.00,0.00,VWS V14.01,2013-07-27 10:44:00,
2013-07-27 05:45:00,59.2,55.0,29.87,West,268,7.0,8.0,86,0.00,,---,0.00,0.00,VWS V14.01,2013-07-27 10:45:00,
2013-07-27 05:49:00,59.2,55.0,29.87,SSE,165,3.0,10.0,86,0.00,,---,0.00,0.00,VWS V14.01,2013-07-27 10:49:00,
2013-07-27 05:50:00,59.3,55.1,29.87,North,352,5.0,10.0,86,0.00,,---,0.00,0.00,VWS V14.01,2013-07-27 10:50:00,
2013-07-27 05:54:00,59.3,55.1,29.87,North,359,4.0,7.0,86,0.00,,---,0.00,0.00,VWS V14.01,2013-07-27 10:54:00,
2013-07-27 05:55:00,59.3,55.1,29.87,West,263,6.0,7.0,86,0.00,,---,0.00,0.00,VWS V14.01,2013-07-27 10:55:00,
2013-07-27 05:59:00,59.5,55.3,29.87,West,277,5.0,7.0,86,0.00,,---,0.00,0.00,VWS V14.01,2013-07-27 10:59:00,
2013-07-27 06:00:00,59.5,55.3,29.88,North,0,6.0,7.0,86,0.00,,---,0.00,0.00,VWS V14.01,2013-07-27 11:00:00,
2013-07-27 06:04:00,59.8,55.6,29.88,North,353,5.0,6.0,86,0.00,,---,0.00,0.00,VWS V14.01,2013-07-27 11:04:00,
2013-07-27 06:05:00,59.8,55.6,29.88,NE,44,3.0,6.0,86,0.00,,---,0.00,0.00,VWS V14.01,2013-07-27 11:05:00,
2013-07-27 06:09:00,59.8,55.6,29.88,North,0,3.0,4.0,86,0.00,,---,0.00,0.00,VWS V14.01,2013-07-27 11:09:00,
2013-07-27 06:10:00,59.8,55.6,29.88,North,0,2.0,5.0,86,0.00,,---,0.00,0.00,VWS V14.01,2013-07-27 11:10:00,
2013-07-27 06:14:00,59.9,55.7,29.89,NE,41,3.0,4.0,86,0.01,,---,0.01,0.00,VWS V14.01,2013-07-27 11:14:00,
2013-07-27 06:15:00,59.9,56.0,29.89,West,268,3.0,4.0,87,0.01,,---,0.01,0.00,VWS V14.01,2013-07-27 11:15:00,
2013-07-27 06:19:00,59.8,55.9,29.89,NNE,28,3.0,6.0,87,0.01,,---,0.01,0.00,VWS V14.01,2013-07-27 11:19:00,
2013-07-27 06:20:00,59.8,55.9,29.89,NNW,339,3.0,6.0,87,0.01,,---,0.01,0.00,VWS V14.01,2013-07-27 11:20:00,
2013-07-27 06:25:00,59.6,56.0,29.89,North,0,3.0,5.0,88,0.01,,---,0.01,0.00,VWS V14.01,2013-07-27 11:25:00,
2013-07-27 06:30:00,59.5,56.3,29.89,NE,51,6.0,7.0,89,0.01,,---,0.01,0.00,VWS V14.01,2013-07-27 11:30:00,
2013-07-27 06:35:00,59.5,56.6,29.89,SW,229,10.0,10.0,90,0.02,,---,0.02,0.00,VWS V14.01,2013-07-27 11:35:00,
2013-07-27 06:40:00,59.5,56.9,29.89,ENE,78,9.0,10.0,91,0.02,,---,0.02,0.00,VWS V14.01,2013-07-27 11:40:00,
2013-07-27 06:45:00,59.5,56.9,29.90,NNW,342,11.0,13.0,91,0.02,,---,0.02,0.00,VWS V14.01,2013-07-27 11:45:00,
2013-07-27 06:50:00,59.3,57.0,29.90,NNW,329,8.0,13.0,92,0.02,,---,0.02,0.00,VWS V14.01,2013-07-27 11:50:00,
2013-07-27 06:55:00,59.3,57.0,29.90,SSW,202,7.0,11.0,92,0.02,,---,0.02,0.00,VWS V14.01,2013-07-27 11:55:00,
2013-07-27 07:00:00,59.2,56.9,29.92,SSW,192,7.0,10.0,92,0.02,,---,0.02,0.00,VWS V14.01,2013-07-27 12:00:00,
2013-07-27 07:05:00,59.2,56.9,29.92,SSW,205,7.0,7.0,92,0.03,,---,0.03,0.00,VWS V14.01,2013-07-27 12:05:00,
2013-07-27 07:10:00,59.0,56.7,29.92,SE,124,7.0,8.0,92,0.04,,---,0.04,0.00,VWS V14.01,2013-07-27 12:10:00,
2013-07-27 07:15:00,58.9,56.6,29.91,NNW,332,4.0,10.0,92,0.04,,---,0.04,0.00,VWS V14.01,2013-07-27 12:15:00,
2013-07-27 07:16:00,58.9,56.6,29.91,North,0,5.0,7.0,92,0.03,,---,0.04,0.00,VWS V14.01,2013-07-27 12:16:00,
2013-07-27 07:20:00,58.7,56.4,29.91,North,0,8.0,10.0,92,0.03,,---,0.04,0.00,VWS V14.01,2013-07-27 12:20:00,
2013-07-27 07:21:00,58.7,56.4,29.91,WNW,291,5.0,8.0,92,0.03,,---,0.04,0.00,VWS V14.01,2013-07-27 12:21:00,
2013-07-27 07:25:00,58.7,56.4,29.91,North,356,7.0,14.0,92,0.03,,---,0.04,0.00,VWS V14.01,2013-07-27 12:25:00,
2013-07-27 07:26:00,58.7,56.7,29.91,NNW,339,11.0,11.0,93,0.03,,---,0.04,0.00,VWS V14.01,2013-07-27 12:26:00,
2013-07-27 07:30:00,58.7,56.7,29.89,North,354,8.0,13.0,93,0.03,,---,0.04,0.00,VWS V14.01,2013-07-27 12:30:00,
2013-07-27 07:31:00,58.7,56.7,29.89,North,352,8.0,11.0,93,0.03,,---,0.04,0.00,VWS V14.01,2013-07-27 12:31:00,
2013-07-27 07:35:00,58.7,56.7,29.89,North,349,7.0,12.0,93,0.03,,---,0.04,0.00,VWS V14.01,2013-07-27 12:35:00,
2013-07-27 07:37:00,58.6,56.6,29.89,North,0,7.0,13.0,93,0.02,,---,0.04,0.00,VWS V14.01,2013-07-27 12:37:00,
2013-07-27 07:40:00,58.6,56.6,29.89,North,0,7.0,13.0,93,0.02,,---,0.04,0.00,VWS V14.01,2013-07-27 12:40:00,
2013-07-27 07:42:00,58.6,56.6,29.89,North,0,5.0,11.0,93,0.02,,---,0.04,5.00,VWS V14.01,2013-07-27 12:42:00,
2013-07-27 07:45:00,58.6,56.6,29.89,North,0,7.0,11.0,93,0.02,,---,0.04,5.00,VWS V14.01,2013-07-27 12:45:00,
2013-07-27 07:47:00,58.7,56.7,29.89,North,0,6.0,12.0,93,0.02,,---,0.04,7.00,VWS V14.01,2013-07-27 12:47:00,
2013-07-27 07:50:00,58.7,56.7,29.89,North,0,5.0,12.0,93,0.02,,---,0.04,9.00,VWS V14.01,2013-07-27 12:50:00,
2013-07-27 07:52:00,58.7,56.7,29.89,SSW,195,7.0,10.0,93,0.02,,---,0.04,9.00,VWS V14.01,2013-07-27 12:52:00,
2013-07-27 07:55:00,58.7,56.7,29.89,NNW,339,6.0,10.0,93,0.02,,---,0.04,14.00,VWS V14.01,2013-07-27 12:55:00,
2013-07-27 07:57:00,58.7,57.0,29.89,NNW,343,1.0,7.0,94,0.02,,---,0.04,14.00,VWS V14.01,2013-07-27 12:57:00,
2013-07-27 08:00:00,58.7,57.0,29.89,North,0,2.0,7.0,94,0.02,,---,0.04,14.00,VWS V14.01,2013-07-27 13:00:00,
2013-07-27 08:02:00,58.7,57.0,29.89,SW,219,2.0,7.0,94,0.02,,---,0.04,7.00,VWS V14.01,2013-07-27 13:02:00,
2013-07-27 08:05:00,58.7,56.7,29.89,SSE,162,2.0,7.0,93,0.02,,---,0.04,7.00,VWS V14.01,2013-07-27 13:05:00,
2013-07-27 08:08:00,58.7,56.7,29.89,East,86,3.0,5.0,93,0.01,,---,0.04,9.00,VWS V14.01,2013-07-27 13:08:00,
2013-07-27 08:10:00,58.7,56.7,29.89,North,0,3.0,6.0,93,0.01,,---,0.04,9.00,VWS V14.01,2013-07-27 13:10:00,
2013-07-27 08:13:00,58.7,56.7,29.89,North,0,3.0,5.0,93,0.00,,---,0.04,12.00,VWS V14.01,2013-07-27 13:13:00,
2013-07-27 08:15:00,58.9,56.9,29.92,West,277,3.0,5.0,93,0.00,,---,0.04,5.00,VWS V14.01,2013-07-27 13:15:00,
2013-07-27 08:18:00,59.0,57.0,29.92,NNW,343,6.0,8.0,93,0.00,,---,0.04,5.00,VWS V14.01,2013-07-27 13:18:00,
2013-07-27 08:20:00,59.2,57.5,29.92,WNW,299,8.0,11.0,94,0.00,,---,0.04,9.00,VWS V14.01,2013-07-27 13:20:00,
2013-07-27 08:23:00,59.2,57.5,29.92,West,267,7.0,13.0,94,0.00,,---,0.04,9.00,VWS V14.01,2013-07-27 13:23:00,
2013-07-27 08:25:00,59.2,57.5,29.92,NNW,333,6.0,13.0,94,0.00,,---,0.04,12.00,VWS V14.01,2013-07-27 13:25:00,
2013-07-27 08:28:00,59.2,57.5,29.92,East,80,8.0,8.0,94,0.00,,---,0.04,35.00,VWS V14.01,2013-07-27 13:28:00,
2013-07-27 08:30:00,59.0,57.3,29.95,SSE,151,7.0,11.0,94,0.00,,---,0.04,35.00,VWS V14.01,2013-07-27 13:30:00,
2013-07-27 08:33:00,59.0,57.3,29.95,South,169,6.0,10.0,94,0.00,,---,0.04,33.00,VWS V14.01,2013-07-27 13:33:00,
2013-07-27 08:35:00,58.9,57.2,29.95,NW,323,7.0,10.0,94,0.00,,---,0.04,33.00,VWS V14.01,2013-07-27 13:35:00,
2013-07-27 08:39:00,58.7,57.0,29.95,SW,234,5.0,8.0,94,0.00,,---,0.04,48.00,VWS V14.01,2013-07-27 13:39:00,
2013-07-27 08:40:00,58.7,57.0,29.95,NNW,346,8.0,8.0,94,0.00,,---,0.04,44.00,VWS V14.01,2013-07-27 13:40:00,
2013-07-27 08:44:00,58.7,57.0,29.95,SW,236,6.0,8.0,94,0.00,,---,0.04,44.00,VWS V14.01,2013-07-27 13:44:00,
2013-07-27 08:45:00,58.7,57.0,29.92,NNW,344,5.0,8.0,94,0.00,,---,0.04,74.00,VWS V14.01,2013-07-27 13:45:00,
2013-07-27 08:49:00,58.9,57.2,29.92,North,357,6.0,8.0,94,0.00,,---,0.04,63.00,VWS V14.01,2013-07-27 13:49:00,
2013-07-27 08:50:00,58.9,57.2,29.92,North,353,7.0,8.0,94,0.00,,---,0.04,60.00,VWS V14.01,2013-07-27 13:50:00,
2013-07-27 08:54:00,59.0,57.3,29.92,North,356,7.0,7.0,94,0.00,,---,0.04,90.00,VWS V14.01,2013-07-27 13:54:00,
2013-07-27 08:55:00,58.9,57.2,29.92,NNW,347,1.0,7.0,94,0.00,,---,0.04,165.00,VWS V14.01,2013-07-27 13:55:00,
2013-07-27 09:02:00,59.2,57.5,29.92,North,0,7.0,7.0,94,0.00,,---,0.04,104.00,VWS V14.01,2013-07-27 14:02:00,
2013-07-27 09:05:00,59.0,57.3,29.92,WNW,294,2.0,7.0,94,0.00,,---,0.04,181.00,VWS V14.01,2013-07-27 14:05:00,
2013-07-27 09:07:00,59.2,57.5,29.92,North,0,2.0,5.0,94,0.00,,---,0.04,179.00,VWS V14.01,2013-07-27 14:07:00,
2013-07-27 09:10:00,59.3,57.6,29.92,East,79,1.0,8.0,94,0.00,,---,0.04,220.00,VWS V14.01,2013-07-27 14:10:00,
2013-07-27 09:12:00,59.3,57.6,29.92,NW,323,1.0,7.0,94,0.00,,---,0.04,223.00,VWS V14.01,2013-07-27 14:12:00,
2013-07-27 09:15:00,59.3,57.3,29.91,WNW,301,7.0,8.0,93,0.00,,---,0.04,218.00,VWS V14.01,2013-07-27 14:15:00,
2013-07-27 09:17:00,59.5,57.5,29.91,SE,136,7.0,7.0,93,0.00,,---,0.04,213.00,VWS V14.01,2013-07-27 14:17:00,
2013-07-27 09:20:00,59.6,57.6,29.91,West,271,8.0,8.0,93,0.00,,---,0.04,225.00,VWS V14.01,2013-07-27 14:20:00,
2013-07-27 09:22:00,59.8,57.5,29.91,West,265,3.0,8.0,92,0.00,,---,0.04,215.00,VWS V14.01,2013-07-27 14:22:00,
2013-07-27 09:25:00,59.9,57.9,29.91,North,0,6.0,8.0,93,0.00,,---,0.04,216.00,VWS V14.01,2013-07-27 14:25:00,
2013-07-27 09:27:00,60.1,57.8,29.91,SE,124,2.0,7.0,92,0.00,,---,0.04,222.00,VWS V14.01,2013-07-27 14:27:00,
2013-07-27 09:30:00,60.1,57.8,29.92,North,0,7.0,7.0,92,0.00,,---,0.04,225.00,VWS V14.01,2013-07-27 14:30:00,
2013-07-27 09:32:00,60.2,57.9,29.92,NNW,328,6.0,7.0,92,0.00,,---,0.04,206.00,VWS V14.01,2013-07-27 14:32:00,
2013-07-27 09:35:00,60.4,58.1,29.92,North,0,5.0,7.0,92,0.00,,---,0.04,246.00,VWS V14.01,2013-07-27 14:35:00,
2013-07-27 09:38:00,60.4,57.8,29.92,North,350,5.0,8.0,91,0.00,,---,0.04,246.00,VWS V14.01,2013-07-27 14:38:00,
2013-07-27 09:40:00,60.5,58.2,29.92,North,0,2.0,8.0,92,0.00,,---,0.04,246.00,VWS V14.01,2013-07-27 14:40:00,
2013-07-27 09:43:00,60.9,58.3,29.92,NNW,346,3.0,8.0,91,0.00,,---,0.04,561.00,VWS V14.01,2013-07-27 14:43:00,
2013-07-27 09:45:00,61.2,58.6,29.91,East,88,2.0,8.0,91,0.00,,---,0.04,547.00,VWS V14.01,2013-07-27 14:45:00,
2013-07-27 09:48:00,61.6,59.0,29.91,East,89,2.0,5.0,91,0.00,,---,0.04,577.00,VWS V14.01,2013-07-27 14:48:00,
2013-07-27 09:50:00,61.6,58.6,29.91,North,0,4.0,5.0,90,0.00,,---,0.04,577.00,VWS V14.01,2013-07-27 14:50:00,
2013-07-27 09:53:00,61.6,58.6,29.91,West,274,2.0,6.0,90,0.00,,---,0.04,577.00,VWS V14.01,2013-07-27 14:53:00,
2013-07-27 09:55:00,61.8,58.5,29.91,SE,140,6.0,7.0,89,0.00,,---,0.04,338.00,VWS V14.01,2013-07-27 14:55:00,
2013-07-27 09:58:00,61.6,58.0,29.91,NNW,347,5.0,7.0,88,0.00,,---,0.04,329.00,VWS V14.01,2013-07-27 14:58:00,
2013-07-27 10:00:00,61.5,57.6,29.90,SW,226,6.0,7.0,87,0.00,,---,0.04,318.00,VWS V14.01,2013-07-27 15:00:00,
2013-07-27 10:03:00,61.6,57.7,29.90,SE,136,7.0,7.0,87,0.00,,---,0.04,385.00,VWS V14.01,2013-07-27 15:03:00,
2013-07-27 10:05:00,61.8,57.9,29.90,North,356,5.0,7.0,87,0.00,,---,0.04,382.00,VWS V14.01,2013-07-27 15:05:00,
2013-07-27 10:08:00,62.1,57.9,29.90,SSW,210,2.0,5.0,86,0.00,,---,0.04,274.00,VWS V14.01,2013-07-27 15:08:00,
2013-07-27 10:10:00,62.1,57.9,29.90,NNW,342,6.0,6.0,86,0.00,,---,0.04,243.00,VWS V14.01,2013-07-27 15:10:00,
2013-07-27 10:13:00,62.1,57.5,29.90,WSW,253,2.0,7.0,85,0.00,,---,0.04,252.00,VWS V14.01,2013-07-27 15:13:00,
2013-07-27 10:15:00,62.1,57.2,29.91,SE,144,2.0,7.0,84,0.00,,---,0.04,243.00,VWS V14.01,2013-07-27 15:15:00,
2013-07-27 10:18:00,62.3,57.4,29.91,NNW,346,3.0,6.0,84,0.00,,---,0.04,171.00,VWS V14.01,2013-07-27 15:18:00,
2013-07-27 10:20:00,62.1,56.9,29.91,SSW,202,2.0,6.0,83,0.00,,---,0.04,139.00,VWS V14.01,2013-07-27 15:20:00,
2013-07-27 10:23:00,62.0,56.5,29.91,NW,305,5.0,7.0,82,0.00,,---,0.04,128.00,VWS V14.01,2013-07-27 15:23:00,
2013-07-27 10:25:00,62.0,56.5,29.91,North,349,3.0,7.0,82,0.00,,---,0.04,128.00,VWS V14.01,2013-07-27 15:25:00,
2013-07-27 10:29:00,61.8,56.2,29.91,North,359,1.0,3.0,82,0.00,,---,0.04,99.00,VWS V14.01,2013-07-27 15:29:00,
2013-07-27 10:30:00,61.8,56.2,29.92,North,0,1.0,3.0,82,0.00,,---,0.04,93.00,VWS V14.01,2013-07-27 15:30:00,
2013-07-27 10:34:00,61.8,56.2,29.92,SW,222,2.0,4.0,82,0.00,,---,0.04,88.00,VWS V14.01,2013-07-27 15:34:00,
2013-07-27 10:35:00,61.8,56.2,29.92,SSW,212,0.0,4.0,82,0.00,,---,0.04,83.00,VWS V14.01,2013-07-27 15:35:00,
2013-07-27 10:39:00,61.8,56.2,29.92,North,349,0.0,0.0,82,0.00,,---,0.04,56.00,VWS V14.01,2013-07-27 15:39:00,
2013-07-27 10:40:00,61.8,56.2,29.92,NW,313,0.0,0.0,82,0.00,,---,0.04,53.00,VWS V14.01,2013-07-27 15:40:00,
2013-07-27 10:44:00,61.6,56.1,29.92,North,359,0.0,0.0,82,0.00,,---,0.04,83.00,VWS V14.01,2013-07-27 15:44:00,
2013-07-27 10:45:00,61.6,56.1,29.93,NNW,333,0.0,0.0,82,0.00,,---,0.04,83.00,VWS V14.01,2013-07-27 15:45:00,
2013-07-27 10:49:00,61.6,56.1,29.93,North,0,0.0,0.0,82,0.00,,---,0.04,134.00,VWS V14.01,2013-07-27 15:49:00,
2013-07-27 10:50:00,61.6,56.1,29.93,NNW,347,0.0,0.0,82,0.00,,---,0.04,135.00,VWS V14.01,2013-07-27 15:50:00,
2013-07-27 10:55:00,61.8,56.2,29.93,NNW,343,0.0,0.0,82,0.00,,---,0.04,178.00,VWS V14.01,2013-07-27 15:55:00,
2013-07-27 11:00:00,62.0,56.5,29.92,SSW,209,0.0,0.0,82,0.00,,---,0.04,267.00,VWS V14.01,2013-07-27 16:00:00,
2013-07-27 11:05:00,62.1,56.5,29.92,NNW,347,0.0,0.0,82,0.01,,---,0.05,259.00,VWS V14.01,2013-07-27 16:05:00,
2013-07-27 11:10:00,62.3,56.1,29.92,North,356,5.0,6.0,80,0.01,,---,0.05,223.00,VWS V14.01,2013-07-27 16:10:00,
2013-07-27 11:15:00,62.1,56.2,29.92,SW,220,0.0,5.0,81,0.01,,---,0.05,167.00,VWS V14.01,2013-07-27 16:15:00,
2013-07-27 11:20:00,62.3,56.4,29.92,West,261,1.0,6.0,81,0.01,,---,0.05,183.00,VWS V14.01,2013-07-27 16:20:00,
2013-07-27 11:25:00,62.3,56.4,29.92,NNW,335,2.0,4.0,81,0.01,,---,0.05,269.00,VWS V14.01,2013-07-27 16:25:00,
2013-07-27 11:30:00,62.4,56.2,29.92,North,0,3.0,6.0,80,0.01,,---,0.05,238.00,VWS V14.01,2013-07-27 16:30:00,
2013-07-27 11:35:00,62.4,55.8,29.92,East,90,5.0,7.0,79,0.01,,---,0.05,199.00,VWS V14.01,2013-07-27 16:35:00,
2013-07-27 11:40:00,62.6,56.0,29.92,North,352,4.0,6.0,79,0.01,,---,0.05,162.00,VWS V14.01,2013-07-27 16:40:00,
2013-07-27 11:45:00,62.6,56.0,29.91,North,0,6.0,6.0,79,0.01,,---,0.05,167.00,VWS V14.01,2013-07-27 16:45:00,
2013-07-27 11:50:00,62.6,56.0,29.91,SE,130,0.0,2.0,79,0.01,,---,0.05,232.00,VWS V14.01,2013-07-27 16:50:00,
2013-07-27 11:55:00,62.9,56.3,29.91,South,176,4.0,4.0,79,0.01,,---,0.05,192.00,VWS V14.01,2013-07-27 16:55:00,
2013-07-27 12:00:00,62.9,56.3,29.91,SW,234,3.0,6.0,79,0.01,,---,0.05,232.00,VWS V14.01,2013-07-27 17:00:00,
2013-07-27 12:01:00,62.9,56.3,29.91,SSE,150,4.0,4.0,79,0.01,,---,0.05,229.00,VWS V14.01,2013-07-27 17:01:00,
2013-07-27 12:05:00,63.1,56.5,29.91,SSE,157,0.0,6.0,79,0.01,,---,0.05,187.00,VWS V14.01,2013-07-27 17:05:00,
2013-07-27 12:06:00,63.1,56.5,29.91,ESE,120,0.0,0.0,79,0.00,,---,0.05,187.00,VWS V14.01,2013-07-27 17:06:00,
2013-07-27 12:10:00,63.1,56.5,29.91,WSW,240,0.0,0.0,79,0.00,,---,0.05,181.00,VWS V14.01,2013-07-27 17:10:00,
2013-07-27 12:11:00,63.1,56.5,29.91,SSW,205,0.0,0.0,79,0.00,,---,0.05,183.00,VWS V14.01,2013-07-27 17:11:00,
2013-07-27 12:15:00,63.2,56.6,29.91,North,350,0.0,0.0,79,0.00,,---,0.05,208.00,VWS V14.01,2013-07-27 17:15:00,
2013-07-27 12:16:00,63.2,56.6,29.91,NNW,342,0.0,0.0,79,0.00,,---,0.05,248.00,VWS V14.01,2013-07-27 17:16:00,
2013-07-27 12:20:00,63.4,56.8,29.91,SSW,198,0.0,0.0,79,0.00,,---,0.05,303.00,VWS V14.01,2013-07-27 17:20:00,
2013-07-27 12:22:00,63.4,56.8,29.91,North,349,0.0,0.0,79,0.00,,---,0.05,290.00,VWS V14.01,2013-07-27 17:22:00,
2013-07-27 12:25:00,63.5,56.9,29.91,ESE,119,0.0,0.0,79,0.00,,---,0.05,326.00,VWS V14.01,2013-07-27 17:25:00,
2013-07-27 12:27:00,63.7,57.1,29.91,WSW,248,0.0,0.0,79,0.00,,---,0.05,262.00,VWS V14.01,2013-07-27 17:27:00,
2013-07-27 12:30:00,63.7,56.7,29.91,WNW,298,0.0,0.0,78,0.00,,---,0.05,294.00,VWS V14.01,2013-07-27 17:30:00,
2013-07-27 12:32:00,63.7,56.7,29.91,WSW,250,0.0,0.0,78,0.00,,---,0.05,362.00,VWS V14.01,2013-07-27 17:32:00,
2013-07-27 12:35:00,63.9,56.9,29.91,NW,315,0.0,0.0,78,0.00,,---,0.05,422.00,VWS V14.01,2013-07-27 17:35:00,
2013-07-27 12:37:00,64.0,57.0,29.91,NNW,330,0.0,0.0,78,0.00,,---,0.05,440.00,VWS V14.01,2013-07-27 17:37:00,
2013-07-27 12:40:00,64.2,57.2,29.91,East,96,2.0,6.0,78,0.00,,---,0.05,413.00,VWS V14.01,2013-07-27 17:40:00,
2013-07-27 12:42:00,64.2,56.8,29.91,South,182,2.0,3.0,77,0.00,,---,0.05,440.00,VWS V14.01,2013-07-27 17:42:00,
2013-07-27 12:45:00,64.5,57.1,29.90,SE,124,0.0,3.0,77,0.00,,---,0.05,484.00,VWS V14.01,2013-07-27 17:45:00,
2013-07-27 12:47:00,64.8,57.4,29.90,NW,309,0.0,0.0,77,0.00,,---,0.05,501.00,VWS V14.01,2013-07-27 17:47:00,
2013-07-27 12:50:00,65.2,57.5,29.90,West,277,0.0,3.0,76,0.00,,---,0.05,466.00,VWS V14.01,2013-07-27 17:50:00,
2013-07-27 12:52:00,65.3,56.8,29.90,SSW,210,5.0,6.0,74,0.00,,---,0.05,501.00,VWS V14.01,2013-07-27 17:52:00,
2013-07-27 12:55:00,65.3,56.4,29.90,North,0,6.0,8.0,73,0.00,,---,0.05,570.00,VWS V14.01,2013-07-27 17:55:00,
2013-07-27 12:58:00,65.3,55.7,29.90,SW,229,3.0,7.0,71,0.00,,---,0.05,540.00,VWS V14.01,2013-07-27 17:58:00,
2013-07-27 13:00:00,65.6,56.0,29.89,SSE,162,5.0,7.0,71,0.00,,---,0.05,514.00,VWS V14.01,2013-07-27 18:00:00,
2013-07-27 13:03:00,65.8,55.8,29.89,SW,229,5.0,8.0,70,0.00,,---,0.05,640.00,VWS V14.01,2013-07-27 18:03:00,
2013-07-27 13:05:00,66.0,56.3,29.89,SW,230,1.0,8.0,71,0.00,,---,0.05,896.00,VWS V14.01,2013-07-27 18:05:00,
2013-07-27 13:08:00,66.4,55.9,29.89,North,352,5.0,9.0,69,0.00,,---,0.05,896.00,VWS V14.01,2013-07-27 18:08:00,
2013-07-27 13:10:00,66.8,55.9,29.89,North,0,6.0,9.0,68,0.00,,---,0.05,457.00,VWS V14.01,2013-07-27 18:10:00,
2013-07-27 13:13:00,66.6,55.3,29.89,North,0,5.0,8.0,67,0.00,,---,0.05,472.00,VWS V14.01,2013-07-27 18:13:00,
2013-07-27 13:15:00,66.6,55.3,29.90,NNW,347,5.0,8.0,67,0.00,,---,0.05,413.00,VWS V14.01,2013-07-27 18:15:00,
2013-07-27 13:18:00,66.6,54.9,29.90,NNW,333,6.0,6.0,66,0.00,,---,0.05,333.00,VWS V14.01,2013-07-27 18:18:00,
2013-07-27 13:20:00,66.8,55.5,29.90,North,0,3.0,7.0,67,0.00,,---,0.05,304.00,VWS V14.01,2013-07-27 18:20:00,
2013-07-27 13:23:00,66.8,55.5,29.90,North,0,6.0,8.0,67,0.00,,---,0.05,315.00,VWS V14.01,2013-07-27 18:23:00,
2013-07-27 13:25:00,66.6,55.7,29.90,SSW,209,5.0,8.0,68,0.00,,---,0.05,292.00,VWS V14.01,2013-07-27 18:25:00,
2013-07-27 13:28:00,66.6,55.7,29.90,SSW,196,7.0,10.0,68,0.00,,---,0.05,276.00,VWS V14.01,2013-07-27 18:28:00,
2013-07-27 13:30:00,66.6,55.7,29.90,North,353,4.0,10.0,68,0.00,,---,0.05,326.00,VWS V14.01,2013-07-27 18:30:00,
2013-07-27 13:33:00,66.6,55.3,29.90,North,0,8.0,8.0,67,0.00,,---,0.05,509.00,VWS V14.01,2013-07-27 18:33:00,
2013-07-27 13:35:00,66.8,55.5,29.90,North,0,10.0,12.0,67,0.00,,---,0.05,440.00,VWS V14.01,2013-07-27 18:35:00,
2013-07-27 13:38:00,67.1,56.6,29.90,North,349,3.0,10.0,69,0.00,,---,0.05,421.00,VWS V14.01,2013-07-27 18:38:00,
2013-07-27 13:40:00,67.1,56.6,29.90,North,352,4.0,10.0,69,0.00,,---,0.05,391.00,VWS V14.01,2013-07-27 18:40:00,
2013-07-27 13:43:00,67.6,56.7,29.90,North,0,7.0,10.0,68,0.00,,---,0.05,391.00,VWS V14.01,2013-07-27 18:43:00,
2013-07-27 13:45:00,67.8,56.5,29.88,North,0,2.0,10.0,67,0.00,,---,0.05,373.00,VWS V14.01,2013-07-27 18:45:00,
2013-07-27 13:48:00,68.1,56.7,29.88,North,0,8.0,10.0,67,0.00,,---,0.05,589.00,VWS V14.01,2013-07-27 18:48:00,
2013-07-27 13:50:00,68.1,55.9,29.88,NNW,347,10.0,11.0,65,0.00,,---,0.05,575.00,VWS V14.01,2013-07-27 18:50:00,
2013-07-27 13:53:00,67.9,56.1,29.88,SSE,161,5.0,11.0,66,0.00,,---,0.05,691.00,VWS V14.01,2013-07-27 18:53:00,
2013-07-27 13:55:00,67.9,55.7,29.88,North,354,7.0,11.0,65,0.00,,---,0.05,568.00,VWS V14.01,2013-07-27 18:55:00,
2013-07-27 13:59:00,68.3,56.5,29.88,SE,138,8.0,10.0,66,0.00,,---,0.05,528.00,VWS V14.01,2013-07-27 18:59:00,
2013-07-27 14:00:00,68.1,56.3,29.88,North,0,9.0,10.0,66,0.00,,---,0.05,538.00,VWS V14.01,2013-07-27 19:00:00,
2013-07-27 14:04:00,68.4,57.4,29.88,North,0,5.0,9.0,68,0.00,,---,0.05,572.00,VWS V14.01,2013-07-27 19:04:00,
2013-07-27 14:05:00,68.4,56.6,29.88,North,352,6.0,9.0,66,0.00,,---,0.05,526.00,VWS V14.01,2013-07-27 19:05:00,
2013-07-27 14:09:00,68.4,56.6,29.88,SSW,203,5.0,9.0,66,0.00,,---,0.05,545.00,VWS V14.01,2013-07-27 19:09:00,
2013-07-27 14:10:00,68.4,57.0,29.88,NNW,347,6.0,10.0,67,0.00,,---,0.05,626.00,VWS V14.01,2013-07-27 19:10:00,
2013-07-27 14:14:00,68.3,56.9,29.88,WNW,302,7.0,9.0,67,0.00,,---,0.05,480.00,VWS V14.01,2013-07-27 19:14:00,
2013-07-27 14:15:00,68.1,56.3,29.88,SSW,199,3.0,9.0,66,0.00,,---,0.05,470.00,VWS V14.01,2013-07-27 19:15:00,
2013-07-27 14:19:00,68.1,56.7,29.88,North,357,6.0,11.0,67,0.00,,---,0.05,523.00,VWS V14.01,2013-07-27 19:19:00,
2013-07-27 14:20:00,68.1,56.7,29.88,North,0,5.0,11.0,67,0.00,,---,0.05,523.00,VWS V14.01,2013-07-27 19:20:00,
2013-07-27 14:24:00,67.8,56.5,29.88,East,89,8.0,12.0,67,0.00,,---,0.05,461.00,VWS V14.01,2013-07-27 19:24:00,
2013-07-27 14:25:00,67.6,56.3,29.88,North,356,11.0,12.0,67,0.00,,---,0.05,466.00,VWS V14.01,2013-07-27 19:25:00,
2013-07-27 14:29:00,67.6,56.7,29.88,North,0,7.0,11.0,68,0.00,,---,0.05,459.00,VWS V14.01,2013-07-27 19:29:00,
2013-07-27 14:30:00,67.6,56.3,29.88,North,353,2.0,11.0,67,0.00,,---,0.05,406.00,VWS V14.01,2013-07-27 19:30:00,
2013-07-27 14:35:00,67.6,55.8,29.88,North,0,7.0,9.0,66,0.00,,---,0.05,429.00,VWS V14.01,2013-07-27 19:35:00,
2013-07-27 14:40:00,67.6,54.6,29.88,SSE,157,3.0,11.0,63,0.00,,---,0.05,350.00,VWS V14.01,2013-07-27 19:40:00,
2013-07-27 14:45:00,67.6,55.4,29.88,NNW,346,5.0,8.0,65,0.00,,---,0.05,208.00,VWS V14.01,2013-07-27 19:45:00,
2013-07-27 14:50:00,67.3,54.7,29.88,WNW,298,6.0,8.0,64,0.00,,---,0.05,183.00,VWS V14.01,2013-07-27 19:50:00,
2013-07-27 14:55:00,67.4,55.2,29.88,WSW,254,1.0,7.0,65,0.00,,---,0.05,132.00,VWS V14.01,2013-07-27 19:55:00,
2013-07-27 15:00:00,67.3,55.6,29.90,North,0,7.0,9.0,66,0.00,,---,0.05,72.00,VWS V14.01,2013-07-27 20:00:00,
2013-07-27 15:05:00,67.1,55.4,29.90,WNW,282,3.0,8.0,66,0.00,,---,0.05,55.00,VWS V14.01,2013-07-27 20:05:00,
2013-07-27 15:10:00,66.9,55.2,29.90,North,354,3.0,5.0,66,0.00,,---,0.05,39.00,VWS V14.01,2013-07-27 20:10:00,
2013-07-27 15:15:00,66.6,55.7,29.86,ESE,123,1.0,7.0,68,0.00,,---,0.05,46.00,VWS V14.01,2013-07-27 20:15:00,
2013-07-27 15:20:00,66.3,55.8,29.86,North,350,8.0,10.0,69,0.00,,---,0.05,77.00,VWS V14.01,2013-07-27 20:20:00,
2013-07-27 15:25:00,66.0,56.0,29.86,NNW,346,5.0,5.0,70,0.00,,---,0.05,150.00,VWS V14.01,2013-07-27 20:25:00,
2013-07-27 15:30:00,66.9,56.4,29.84,North,0,5.0,10.0,69,0.00,,---,0.05,809.00,VWS V14.01,2013-07-27 20:30:00,
2013-07-27 15:31:00,67.1,56.6,29.84,NNW,328,7.0,9.0,69,0.00,,---,0.05,809.00,VWS V14.01,2013-07-27 20:31:00,
2013-07-27 15:35:00,67.6,55.4,29.84,ESE,110,8.0,11.0,65,0.00,,---,0.05,405.00,VWS V14.01,2013-07-27 20:35:00,
2013-07-27 15:36:00,67.6,55.4,29.84,WSW,257,8.0,9.0,65,0.00,,---,0.05,405.00,VWS V14.01,2013-07-27 20:36:00,
2013-07-27 15:40:00,67.9,55.3,29.84,North,353,10.0,12.0,64,0.00,,---,0.05,405.00,VWS V14.01,2013-07-27 20:40:00,
2013-07-27 15:41:00,67.9,54.8,29.84,ESE,112,11.0,11.0,63,0.00,,---,0.05,389.00,VWS V14.01,2013-07-27 20:41:00,
2013-07-27 15:45:00,68.1,53.2,29.86,ESE,117,7.0,11.0,59,0.00,,---,0.05,795.00,VWS V14.01,2013-07-27 20:45:00,
2013-07-27 15:46:00,68.3,53.9,29.86,SE,140,10.0,10.0,60,0.00,,---,0.05,795.00,VWS V14.01,2013-07-27 20:46:00,
2013-07-27 15:50:00,68.4,53.1,29.86,North,350,7.0,10.0,58,0.00,,---,0.05,343.00,VWS V14.01,2013-07-27 20:50:00,
2013-07-27 15:51:00,68.4,53.1,29.86,North,359,5.0,7.0,58,0.00,,---,0.05,410.00,VWS V14.01,2013-07-27 20:51:00,
2013-07-27 15:55:00,68.9,53.5,29.86,NW,315,6.0,7.0,58,0.00,,---,0.05,767.00,VWS V14.01,2013-07-27 20:55:00,
2013-07-27 15:56:00,68.9,53.5,29.86,West,277,5.0,6.0,58,0.00,,---,0.05,348.00,VWS V14.01,2013-07-27 20:56:00,
2013-07-27 16:00:00,69.1,53.7,29.86,North,356,2.0,8.0,58,0.00,,---,0.05,362.00,VWS V14.01,2013-07-27 21:00:00,
2013-07-27 16:01:00,69.1,54.2,29.86,NNW,347,2.0,5.0,59,0.00,,---,0.05,362.00,VWS V14.01,2013-07-27 21:01:00,
2013-07-27 16:05:00,68.9,54.0,29.86,North,0,6.0,10.0,59,0.00,,---,0.05,440.00,VWS V14.01,2013-07-27 21:05:00,
2013-07-27 16:06:00,68.9,53.5,29.86,NW,326,3.0,6.0,58,0.00,,---,0.05,440.00,VWS V14.01,2013-07-27 21:06:00,
2013-07-27 16:10:00,69.4,54.0,29.86,South,185,3.0,7.0,58,0.00,,---,0.05,642.00,VWS V14.01,2013-07-27 21:10:00,
2013-07-27 16:12:00,69.3,52.5,29.86,NNW,346,6.0,10.0,55,0.00,,---,0.05,477.00,VWS V14.01,2013-07-27 21:12:00,
2013-07-27 16:15:00,69.6,53.2,29.87,NNW,347,6.0,10.0,56,0.00,,---,0.05,739.00,VWS V14.01,2013-07-27 21:15:00,
2013-07-27 16:17:00,69.6,53.2,29.87,North,0,7.0,10.0,56,0.00,,---,0.05,739.00,VWS V14.01,2013-07-27 21:17:00,
2013-07-27 16:20:00,69.6,53.7,29.87,North,0,5.0,10.0,57,0.00,,---,0.05,304.00,VWS V14.01,2013-07-27 21:20:00,
2013-07-27 16:22:00,69.4,54.0,29.87,NW,316,5.0,7.0,58,0.00,,---,0.05,357.00,VWS V14.01,2013-07-27 21:22:00,
2013-07-27 16:25:00,69.3,54.4,29.87,West,260,6.0,8.0,59,0.00,,---,0.05,232.00,VWS V14.01,2013-07-27 21:25:00,
2013-07-27 16:27:00,69.1,54.7,29.87,East,79,5.0,7.0,60,0.00,,---,0.05,213.00,VWS V14.01,2013-07-27 21:27:00,
2013-07-27 16:30:00,69.1,54.7,29.87,ESE,107,7.0,9.0,60,0.00,,---,0.05,241.00,VWS V14.01,2013-07-27 21:30:00,
2013-07-27 16:32:00,68.9,54.0,29.87,South,174,9.0,9.0,59,0.00,,---,0.05,282.00,VWS V14.01,2013-07-27 21:32:00,
2013-07-27 16:35:00,68.8,53.9,29.87,WNW,288,8.0,11.0,59,0.00,,---,0.05,282.00,VWS V14.01,2013-07-27 21:35:00,
2013-07-27 16:37:00,69.1,53.7,29.87,WNW,287,7.0,8.0,58,0.00,,---,0.05,366.00,VWS V14.01,2013-07-27 21:37:00,
2013-07-27 16:40:00,69.1,54.2,29.87,North,359,6.0,10.0,59,0.00,,---,0.05,303.00,VWS V14.01,2013-07-27 21:40:00,
2013-07-27 16:42:00,69.1,54.2,29.87,WNW,285,7.0,10.0,59,0.00,,---,0.05,230.00,VWS V14.01,2013-07-27 21:42:00,
2013-07-27 16:45:00,68.8,54.4,29.85,SW,227,7.0,10.0,60,0.00,,---,0.05,165.00,VWS V14.01,2013-07-27 21:45:00,
2013-07-27 16:48:00,68.6,54.2,29.85,NNW,347,6.0,8.0,60,0.00,,---,0.05,132.00,VWS V14.01,2013-07-27 21:48:00,
2013-07-27 16:50:00,68.6,54.6,29.85,NNW,340,6.0,11.0,61,0.00,,---,0.05,132.00,VWS V14.01,2013-07-27 21:50:00,
2013-07-27 16:53:00,68.4,54.9,29.85,North,353,7.0,9.0,62,0.00,,---,0.05,120.00,VWS V14.01,2013-07-27 21:53:00,
2013-07-27 16:55:00,68.3,54.8,29.85,North,349,7.0,9.0,62,0.00,,---,0.05,100.00,VWS V14.01,2013-07-27 21:55:00,
2013-07-27 16:58:00,68.1,55.0,29.85,WNW,299,4.0,8.0,63,0.00,,---,0.05,97.00,VWS V14.01,2013-07-27 21:58:00,
2013-07-27 17:00:00,67.9,54.4,29.85,North,0,5.0,8.0,62,0.00,,---,0.05,90.00,VWS V14.01,2013-07-27 22:00:00,
2013-07-27 17:03:00,67.8,54.3,29.85,North,0,2.0,8.0,62,0.00,,---,0.05,76.00,VWS V14.01,2013-07-27 22:03:00,
2013-07-27 17:05:00,67.8,54.8,29.85,North,354,4.0,8.0,63,0.00,,---,0.05,62.00,VWS V14.01,2013-07-27 22:05:00,
2013-07-27 17:08:00,67.6,54.6,29.85,WNW,296,3.0,5.0,63,0.00,,---,0.05,70.00,VWS V14.01,2013-07-27 22:08:00,
2013-07-27 17:10:00,67.6,54.6,29.85,North,0,2.0,5.0,63,0.00,,---,0.05,86.00,VWS V14.01,2013-07-27 22:10:00,
2013-07-27 17:13:00,67.6,55.0,29.85,North,0,2.0,5.0,64,0.00,,---,0.05,125.00,VWS V14.01,2013-07-27 22:13:00,
2013-07-27 17:15:00,67.4,54.8,29.85,NNW,340,4.0,5.0,64,0.00,,---,0.05,130.00,VWS V14.01,2013-07-27 22:15:00,
2013-07-27 17:19:00,67.4,54.8,29.85,North,0,5.0,6.0,64,0.00,,---,0.05,123.00,VWS V14.01,2013-07-27 22:19:00,
2013-07-27 17:20:00,67.4,54.8,29.85,SSE,148,5.0,6.0,64,0.00,,---,0.05,116.00,VWS V14.01,2013-07-27 22:20:00,
2013-07-27 17:24:00,67.4,55.2,29.85,North,352,6.0,6.0,65,0.00,,---,0.05,116.00,VWS V14.01,2013-07-27 22:24:00,
2013-07-27 17:25:00,67.4,56.1,29.85,WNW,301,6.0,6.0,67,0.00,,---,0.05,121.00,VWS V14.01,2013-07-27 22:25:00,
2013-07-27 17:29:00,67.3,56.0,29.85,North,356,7.0,7.0,67,0.00,,---,0.05,132.00,VWS V14.01,2013-07-27 22:29:00,
2013-07-27 17:30:00,66.9,56.0,29.82,North,354,5.0,7.0,68,0.00,,---,0.05,157.00,VWS V14.01,2013-07-27 22:30:00,
2013-07-27 17:34:00,66.8,57.1,29.82,NNW,335,7.0,7.0,71,0.00,,---,0.05,211.00,VWS V14.01,2013-07-27 22:34:00,
2013-07-27 17:35:00,66.6,56.9,29.82,West,268,1.0,7.0,71,0.00,,---,0.05,209.00,VWS V14.01,2013-07-27 22:35:00,
2013-07-27 17:39:00,66.6,57.7,29.82,SW,227,3.0,7.0,73,0.00,,---,0.05,229.00,VWS V14.01,2013-07-27 22:39:00,
2013-07-27 17:40:00,66.6,57.7,29.82,West,260,1.0,7.0,73,0.00,,---,0.05,273.00,VWS V14.01,2013-07-27 22:40:00,
2013-07-27 17:44:00,66.6,57.3,29.82,North,352,5.0,7.0,72,0.00,,---,0.05,294.00,VWS V14.01,2013-07-27 22:44:00,
2013-07-27 17:45:00,66.8,57.9,29.83,East,96,7.0,10.0,73,0.00,,---,0.05,294.00,VWS V14.01,2013-07-27 22:45:00,
2013-07-27 17:49:00,66.8,58.3,29.83,NNW,347,8.0,16.0,74,0.00,,---,0.05,612.00,VWS V14.01,2013-07-27 22:49:00,
2013-07-27 17:50:00,66.6,58.1,29.83,North,0,8.0,16.0,74,0.00,,---,0.05,581.00,VWS V14.01,2013-07-27 22:50:00,
2013-07-27 17:54:00,66.3,57.4,29.83,WSW,239,12.0,16.0,73,0.00,,---,0.05,239.00,VWS V14.01,2013-07-27 22:54:00,
2013-07-27 17:55:00,66.3,57.8,29.83,North,0,8.0,16.0,74,0.00,,---,0.05,239.00,VWS V14.01,2013-07-27 22:55:00,
2013-07-27 17:59:00,65.8,58.0,29.83,North,0,10.0,14.0,76,0.00,,---,0.05,176.00,VWS V14.01,2013-07-27 22:59:00,
2013-07-27 18:00:00,65.5,57.7,29.83,WNW,302,13.0,14.0,76,0.00,,---,0.05,148.00,VWS V14.01,2013-07-27 23:00:00,
2013-07-27 18:04:00,64.0,55.2,29.83,NNW,344,10.0,14.0,73,0.00,,---,0.05,162.00,VWS V14.01,2013-07-27 23:04:00,
2013-07-27 18:05:00,63.9,54.7,29.83,East,88,7.0,14.0,72,0.00,,---,0.05,158.00,VWS V14.01,2013-07-27 23:05:00,
2013-07-27 18:09:00,63.7,54.5,29.83,North,352,7.0,10.0,72,0.00,,---,0.05,155.00,VWS V14.01,2013-07-27 23:09:00,
2013-07-27 18:10:00,63.7,54.1,29.83,North,349,6.0,10.0,71,0.00,,---,0.05,157.00,VWS V14.01,2013-07-27 23:10:00,
2013-07-27 18:14:00,63.7,54.1,29.83,North,0,6.0,8.0,71,0.00,,---,0.05,174.00,VWS V14.01,2013-07-27 23:14:00,
2013-07-27 18:15:00,63.7,54.1,29.84,NNW,329,10.0,10.0,71,0.00,,---,0.05,190.00,VWS V14.01,2013-07-27 23:15:00,
2013-07-27 18:19:00,63.9,54.7,29.84,NNW,329,6.0,10.0,72,0.00,,---,0.05,209.00,VWS V14.01,2013-07-27 23:19:00,
2013-07-27 18:20:00,63.9,54.3,29.84,North,0,6.0,10.0,71,0.00,,---,0.05,139.00,VWS V14.01,2013-07-27 23:20:00,
2013-07-27 18:24:00,64.0,54.8,29.84,West,260,6.0,8.0,72,0.00,,---,0.05,148.00,VWS V14.01,2013-07-27 23:24:00,
2013-07-27 18:25:00,64.0,54.8,29.84,North,0,7.0,8.0,72,0.00,,---,0.05,160.00,VWS V14.01,2013-07-27 23:25:00,
2013-07-27 18:29:00,64.3,55.5,29.84,NW,320,3.0,7.0,73,0.00,,---,0.05,164.00,VWS V14.01,2013-07-27 23:29:00,
2013-07-27 18:30:00,64.5,55.7,29.84,NNW,347,5.0,7.0,73,0.00,,---,0.05,164.00,VWS V14.01,2013-07-27 23:30:00,
2013-07-27 18:34:00,64.8,56.0,29.84,North,352,5.0,6.0,73,0.00,,---,0.05,169.00,VWS V14.01,2013-07-27 23:34:00,
2013-07-27 18:35:00,65.0,55.8,29.84,SW,222,6.0,6.0,72,0.00,,---,0.05,162.00,VWS V14.01,2013-07-27 23:35:00,
2013-07-27 18:39:00,65.5,55.5,29.84,NNW,347,4.0,6.0,70,0.00,,---,0.05,188.00,VWS V14.01,2013-07-27 23:39:00,
2013-07-27 18:40:00,65.5,55.5,29.84,SE,141,7.0,7.0,70,0.00,,---,0.05,209.00,VWS V14.01,2013-07-27 23:40:00,
2013-07-27 18:44:00,65.8,56.5,29.82,North,0,6.0,9.0,72,0.00,,---,0.05,195.00,VWS V14.01,2013-07-27 23:44:00,
2013-07-27 18:45:00,65.8,56.9,29.82,North,0,2.0,9.0,73,0.00,,---,0.05,195.00,VWS V14.01,2013-07-27 23:45:00,
2013-07-27 18:50:00,65.6,56.3,29.82,NNW,346,7.0,7.0,72,0.00,,---,0.05,266.00,VWS V14.01,2013-07-27 23:50:00,
2013-07-27 18:55:00,65.6,56.3,29.82,NNW,347,6.0,7.0,72,0.00,,---,0.05,259.00,VWS V14.01,2013-07-27 23:55:00,
2013-07-27 19:00:00,65.6,56.3,29.84,North,349,4.0,7.0,72,0.00,,---,0.05,188.00,VWS V14.01,2013-07-28 00:00:00,
2013-07-27 19:05:00,65.6,56.3,29.84,North,353,5.0,7.0,72,0.00,,---,0.05,114.00,VWS V14.01,2013-07-28 00:05:00,
2013-07-27 19:10:00,65.5,56.2,29.84,NE,48,6.0,6.0,72,0.00,,---,0.05,79.00,VWS V14.01,2013-07-28 00:10:00,
2013-07-27 19:15:00,65.5,56.6,29.83,North,352,6.0,7.0,73,0.00,,---,0.05,99.00,VWS V14.01,2013-07-28 00:15:00,
2013-07-27 19:20:00,65.3,56.4,29.83,North,353,3.0,6.0,73,0.00,,---,0.05,74.00,VWS V14.01,2013-07-28 00:20:00,
2013-07-27 19:25:00,65.2,56.3,29.83,WNW,302,6.0,7.0,73,0.00,,---,0.05,72.00,VWS V14.01,2013-07-28 00:25:00,
2013-07-27 19:30:00,65.0,56.2,29.82,NNW,347,4.0,6.0,73,0.00,,---,0.05,72.00,VWS V14.01,2013-07-28 00:30:00,
2013-07-27 19:35:00,65.0,56.5,29.82,NW,309,7.0,7.0,74,0.00,,---,0.05,63.00,VWS V14.01,2013-07-28 00:35:00,
2013-07-27 19:40:00,65.0,56.9,29.82,North,0,5.0,7.0,75,0.00,,---,0.05,69.00,VWS V14.01,2013-07-28 00:40:00,
2013-07-27 19:41:00,65.0,56.9,29.82,NNW,343,3.0,5.0,75,0.00,,---,0.05,69.00,VWS V14.01,2013-07-28 00:41:00,
2013-07-27 19:45:00,64.8,56.7,29.80,North,349,6.0,7.0,75,0.00,,---,0.05,67.00,VWS V14.01,2013-07-28 00:45:00,
2013-07-27 19:46:00,64.8,56.7,29.80,ESE,114,7.0,7.0,75,0.00,,---,0.05,53.00,VWS V14.01,2013-07-28 00:46:00,
2013-07-27 19:50:00,64.7,56.6,29.80,North,0,7.0,9.0,75,0.00,,---,0.05,40.00,VWS V14.01,2013-07-28 00:50:00,
2013-07-27 19:51:00,64.7,56.6,29.80,NNW,337,8.0,8.0,75,0.00,,---,0.05,44.00,VWS V14.01,2013-07-28 00:51:00,
2013-07-27 19:55:00,64.5,56.8,29.80,North,0,10.0,10.0,76,0.00,,---,0.05,40.00,VWS V14.01,2013-07-28 00:55:00,
2013-07-27 19:57:00,64.3,56.6,29.80,North,0,8.0,10.0,76,0.00,,---,0.05,35.00,VWS V14.01,2013-07-28 00:57:00,
2013-07-27 20:00:00,64.0,56.7,29.79,North,352,5.0,10.0,77,0.00,,---,0.05,30.00,VWS V14.01,2013-07-28 01:00:00,
2013-07-27 20:02:00,64.0,56.7,29.79,North,0,6.0,7.0,77,0.00,,---,0.05,28.00,VWS V14.01,2013-07-28 01:02:00,
2013-07-27 20:05:00,63.9,56.6,29.79,East,88,4.0,8.0,77,0.00,,---,0.05,26.00,VWS V14.01,2013-07-28 01:05:00,
2013-07-27 20:07:00,63.9,56.2,29.79,West,280,5.0,7.0,76,0.00,,---,0.05,25.00,VWS V14.01,2013-07-28 01:07:00,
2013-07-27 20:10:00,63.7,56.0,29.79,North,0,5.0,7.0,76,0.00,,---,0.05,26.00,VWS V14.01,2013-07-28 01:10:00,
2013-07-27 20:12:00,63.7,55.6,29.79,South,176,3.0,6.0,75,0.00,,---,0.05,26.00,VWS V14.01,2013-07-28 01:12:00,
2013-07-27 20:15:00,63.7,55.6,29.81,North,0,2.0,6.0,75,0.00,,---,0.05,26.00,VWS V14.01,2013-07-28 01:15:00,
2013-07-27 20:17:00,63.7,55.6,29.81,WSW,244,1.0,5.0,75,0.00,,---,0.05,25.00,VWS V14.01,2013-07-28 01:17:00,
2013-07-27 20:20:00,63.7,55.6,29.81,North,357,3.0,5.0,75,0.00,,---,0.05,23.00,VWS V14.01,2013-07-28 01:20:00,
2013-07-27 20:22:00,63.7,56.0,29.81,North,359,2.0,5.0,76,0.00,,---,0.05,11.00,VWS V14.01,2013-07-28 01:22:00,
2013-07-27 20:25:00,63.7,56.0,29.81,SSE,150,3.0,5.0,76,0.00,,---,0.05,11.00,VWS V14.01,2013-07-28 01:25:00,
2013-07-27 20:28:00,63.7,56.0,29.81,NNW,346,3.0,6.0,76,0.00,,---,0.05,5.00,VWS V14.01,2013-07-28 01:28:00,
2013-07-27 20:30:00,63.5,55.8,29.81,North,0,3.0,6.0,76,0.00,,---,0.05,5.00,VWS V14.01,2013-07-28 01:30:00,
2013-07-27 20:33:00,63.5,55.8,29.81,NNW,339,3.0,3.0,76,0.00,,---,0.05,0.00,VWS V14.01,2013-07-28 01:33:00,
2013-07-27 20:35:00,63.4,55.7,29.81,WNW,291,5.0,5.0,76,0.00,,---,0.05,0.00,VWS V14.01,2013-07-28 01:35:00,
2013-07-27 20:38:00,63.4,55.7,29.81,West,267,3.0,5.0,76,0.00,,---,0.05,0.00,VWS V14.01,2013-07-28 01:38:00,
2013-07-27 20:40:00,63.4,56.1,29.81,North,349,2.0,5.0,77,0.00,,---,0.05,0.00,VWS V14.01,2013-07-28 01:40:00,
2013-07-27 20:43:00,63.2,55.9,29.81,North,356,3.0,5.0,77,0.00,,---,0.05,0.00,VWS V14.01,2013-07-28 01:43:00,
2013-07-27 20:45:00,63.2,55.9,29.81,North,0,5.0,6.0,77,0.00,,---,0.05,0.00,VWS V14.01,2013-07-28 01:45:00,
2013-07-27 20:48:00,63.1,55.8,29.81,SE,126,5.0,7.0,77,0.00,,---,0.05,0.00,VWS V14.01,2013-07-28 01:48:00,
2013-07-27 20:50:00,62.9,55.6,29.81,North,350,5.0,7.0,77,0.00,,---,0.05,0.00,VWS V14.01,2013-07-28 01:50:00,
2013-07-27 20:53:00,62.9,55.6,29.81,West,280,5.0,7.0,77,0.00,,---,0.05,0.00,VWS V14.01,2013-07-28 01:53:00,
2013-07-27 20:55:00,62.7,55.4,29.81,North,350,6.0,7.0,77,0.00,,---,0.05,0.00,VWS V14.01,2013-07-28 01:55:00,
2013-07-27 20:58:00,62.7,55.4,29.81,North,0,6.0,8.0,77,0.00,,---,0.05,0.00,VWS V14.01,2013-07-28 01:58:00,
2013-07-27 21:00:00,62.6,55.3,29.80,SE,138,7.0,8.0,77,0.00,,---,0.05,0.00,VWS V14.01,2013-07-28 02:00:00,
2013-07-27 21:03:00,62.6,54.9,29.80,North,350,6.0,8.0,76,0.00,,---,0.05,0.00,VWS V14.01,2013-07-28 02:03:00,
2013-07-27 21:04:00,62.6,54.9,29.80,NNW,335,5.0,8.0,76,0.00,,---,0.05,0.00,VWS V14.01,2013-07-28 02:04:00,
2013-07-27 21:05:00,62.6,54.9,29.80,NNW,343,6.0,8.0,76,0.00,,---,0.05,0.00,VWS V14.01,2013-07-28 02:05:00,
2013-07-27 21:09:00,62.6,54.9,29.80,SW,223,6.0,7.0,76,0.00,,---,0.05,0.00,VWS V14.01,2013-07-28 02:09:00,
2013-07-27 21:10:00,62.6,54.9,29.80,ENE,66,5.0,7.0,76,0.00,,---,0.05,0.00,VWS V14.01,2013-07-28 02:10:00,
2013-07-27 21:15:00,62.6,54.9,29.81,East,88,4.0,6.0,76,0.00,,---,0.05,0.00,VWS V14.01,2013-07-28 02:15:00,
2013-07-27 21:20:00,62.6,54.6,29.81,North,0,6.0,6.0,75,0.00,,---,0.05,0.00,VWS V14.01,2013-07-28 02:20:00,
2013-07-27 21:25:00,62.6,54.6,29.81,NE,44,3.0,6.0,75,0.00,,---,0.05,0.00,VWS V14.01,2013-07-28 02:25:00,
2013-07-27 21:30:00,62.6,54.6,29.82,SSW,200,6.0,6.0,75,0.00,,---,0.05,0.00,VWS V14.01,2013-07-28 02:30:00,
2013-07-27 21:35:00,62.6,54.2,29.82,North,359,3.0,6.0,74,0.00,,---,0.05,0.00,VWS V14.01,2013-07-28 02:35:00,
2013-07-27 21:40:00,62.6,54.6,29.82,North,0,2.0,4.0,75,0.00,,---,0.05,0.00,VWS V14.01,2013-07-28 02:40:00,
2013-07-27 21:45:00,62.6,54.6,29.81,NNW,339,2.0,6.0,75,0.00,,---,0.05,0.00,VWS V14.01,2013-07-28 02:45:00,
2013-07-27 21:50:00,62.6,54.9,29.81,North,349,5.0,7.0,76,0.00,,---,0.05,0.00,VWS V14.01,2013-07-28 02:50:00,
2013-07-27 21:55:00,62.6,54.9,29.81,North,359,2.0,6.0,76,0.00,,---,0.05,0.00,VWS V14.01,2013-07-28 02:55:00,
2013-07-27 22:00:00,62.6,54.6,29.81,SSW,202,2.0,6.0,75,0.00,,---,0.05,0.00,VWS V14.01,2013-07-28 03:00:00,
2013-07-27 22:05:00,62.6,54.9,29.81,North,359,3.0,5.0,76,0.00,,---,0.05,0.00,VWS V14.01,2013-07-28 03:05:00,
2013-07-27 22:10:00,62.6,54.9,29.81,North,0,2.0,5.0,76,0.00,,---,0.05,0.00,VWS V14.01,2013-07-28 03:10:00,
2013-07-27 22:15:00,62.6,54.9,29.82,North,0,0.0,0.0,76,0.00,,---,0.05,0.00,VWS V14.01,2013-07-28 03:15:00,
2013-07-27 22:20:00,62.4,54.8,29.82,North,0,0.0,0.0,76,0.00,,---,0.05,0.00,VWS V14.01,2013-07-28 03:20:00,
2013-07-27 22:25:00,62.4,54.7,29.82,North,0,0.0,0.0,76,0.00,,---,0.05,0.00,VWS V14.01,2013-07-28 03:25:00,
2013-07-27 22:26:00,62.4,54.8,29.82,North,0,0.0,0.0,76,0.00,,---,0.05,0.00,VWS V14.01,2013-07-28 03:26:00,
2013-07-27 22:30:00,62.4,54.7,29.82,NW,319,0.0,0.0,76,0.00,,---,0.05,0.00,VWS V14.01,2013-07-28 03:30:00,
2013-07-27 22:31:00,62.4,54.8,29.82,NW,312,0.0,0.0,76,0.00,,---,0.05,0.00,VWS V14.01,2013-07-28 03:31:00,
2013-07-27 22:35:00,62.4,54.7,29.82,North,0,0.0,0.0,76,0.00,,---,0.05,0.00,VWS V14.01,2013-07-28 03:35:00,
2013-07-27 22:36:00,62.4,54.8,29.82,North,350,0.0,0.0,76,0.00,,---,0.05,0.00,VWS V14.01,2013-07-28 03:36:00,
2013-07-27 22:40:00,62.4,55.1,29.82,North,0,0.0,0.0,77,0.00,,---,0.05,0.00,VWS V14.01,2013-07-28 03:40:00,
2013-07-27 22:41:00,62.4,55.1,29.82,North,0,0.0,0.0,77,0.00,,---,0.05,0.00,VWS V14.01,2013-07-28 03:41:00,
2013-07-27 22:45:00,62.3,55.4,29.82,NNW,347,0.0,0.0,78,0.00,,---,0.05,0.00,VWS V14.01,2013-07-28 03:45:00,
2013-07-27 22:46:00,62.3,55.4,29.82,NNW,347,0.0,0.0,78,0.00,,---,0.05,0.00,VWS V14.01,2013-07-28 03:46:00,
2013-07-27 22:50:00,62.3,55.7,29.82,East,92,2.0,5.0,79,0.00,,---,0.05,0.00,VWS V14.01,2013-07-28 03:50:00,
2013-07-27 22:51:00,62.1,55.5,29.82,East,90,2.0,2.0,79,0.00,,---,0.05,0.00,VWS V14.01,2013-07-28 03:51:00,
2013-07-27 22:55:00,62.1,55.5,29.82,NW,308,3.0,4.0,79,0.00,,---,0.05,0.00,VWS V14.01,2013-07-28 03:55:00,
2013-07-27 22:57:00,62.1,55.9,29.82,East,83,2.0,3.0,80,0.00,,---,0.05,0.00,VWS V14.01,2013-07-28 03:57:00,
2013-07-27 23:00:00,62.1,55.9,29.82,SSW,206,3.0,4.0,80,0.00,,---,0.05,0.00,VWS V14.01,2013-07-28 04:00:00,
2013-07-27 23:01:00,62.1,55.9,29.82,North,349,3.0,4.0,80,0.00,,---,0.05,0.00,VWS V14.01,2013-07-28 04:01:00,
2013-07-27 23:02:00,62.1,55.9,29.82,North,0,2.0,4.0,80,0.00,,---,0.05,0.00,VWS V14.01,2013-07-28 04:02:00,
2013-07-27 23:04:00,62.1,56.2,29.82,NNW,343,2.0,4.0,81,0.00,,---,0.05,0.00,VWS V14.01,2013-07-28 04:04:00,
2013-07-27 23:05:00,62.0,56.1,29.82,WNW,299,3.0,4.0,81,0.00,,---,0.05,0.00,VWS V14.01,2013-07-28 04:05:00,
2013-07-27 23:09:00,62.0,56.1,29.82,NNW,344,2.0,3.0,81,0.00,,---,0.05,0.00,VWS V14.01,2013-07-28 04:09:00,
2013-07-27 23:10:00,62.0,56.1,29.82,North,354,0.0,3.0,81,0.00,,---,0.05,0.00,VWS V14.01,2013-07-28 04:10:00,
2013-07-27 23:14:00,62.0,56.1,29.82,North,0,0.0,0.0,81,0.00,,---,0.05,0.00,VWS V14.01,2013-07-28 04:14:00,
2013-07-27 23:15:00,62.0,56.1,29.83,North,353,0.0,0.0,81,0.00,,---,0.05,0.00,VWS V14.01,2013-07-28 04:15:00,
2013-07-27 23:19:00,62.0,56.1,29.83,NNW,346,0.0,0.0,81,0.00,,---,0.05,0.00,VWS V14.01,2013-07-28 04:19:00,
2013-07-27 23:20:00,62.0,56.1,29.83,North,352,0.0,0.0,81,0.00,,---,0.05,0.00,VWS V14.01,2013-07-28 04:20:00,
2013-07-27 23:24:00,62.1,56.2,29.83,ENE,72,4.0,5.0,81,0.00,,---,0.05,0.00,VWS V14.01,2013-07-28 04:24:00,
2013-07-27 23:25:00,62.1,56.2,29.83,ENE,65,3.0,5.0,81,0.00,,---,0.05,0.00,VWS V14.01,2013-07-28 04:25:00,
2013-07-27 23:29:00,62.0,56.1,29.83,NW,313,5.0,5.0,81,0.00,,---,0.05,0.00,VWS V14.01,2013-07-28 04:29:00,
2013-07-27 23:30:00,61.8,55.9,29.83,North,350,4.0,5.0,81,0.00,,---,0.05,0.00,VWS V14.01,2013-07-28 04:30:00,
2013-07-27 23:34:00,61.8,55.9,29.83,North,0,5.0,7.0,81,0.00,,---,0.05,0.00,VWS V14.01,2013-07-28 04:34:00,
2013-07-27 23:35:00,61.8,55.9,29.83,North,0,5.0,7.0,81,0.00,,---,0.05,0.00,VWS V14.01,2013-07-28 04:35:00,
2013-07-27 23:39:00,61.6,55.7,29.83,North,354,4.0,6.0,81,0.00,,---,0.05,0.00,VWS V14.01,2013-07-28 04:39:00,
2013-07-27 23:40:00,61.6,55.7,29.83,North,0,3.0,6.0,81,0.00,,---,0.05,0.00,VWS V14.01,2013-07-28 04:40:00,
2013-07-27 23:45:00,61.6,55.7,29.82,North,0,5.0,6.0,81,0.00,,---,0.05,0.00,VWS V14.01,2013-07-28 04:45:00,
2013-07-27 23:50:00,61.6,56.1,29.82,North,354,2.0,5.0,82,0.00,,---,0.05,0.00,VWS V14.01,2013-07-28 04:50:00,
2013-07-27 23:55:00,61.6,56.1,29.82,WNW,288,5.0,6.0,82,0.00,,---,0.05,0.00,VWS V14.01,2013-07-28 04:55:00,